ハグ-ベル彗星

178P/Hug-Bell (2006)

English version
Home page
Updated on April 21, 2007

---------------------------------------------------------------------

・ プロフィール

符号 178P/2006 O1
検出日 2006年7月16日
検出光度 18.6-18.7等
検出者 D. Tibbets and G. Hug (Eskridge, KS)

・ 軌道要素

Epoch 2006 July 4.0 TT = JDT 2453920.5
T 2006 July 6.55956 TT                                  MPC
q   1.9470234            (2000.0)            P               Q
n   0.13959877     Peri.  296.87484     +0.74432463     -0.64173785
a   3.6802868      Node   103.64828     +0.66009163     +0.66500836
e   0.4709588      Incl.   10.96308     +0.10129107     +0.38201624
P   7.06

・ 星図

・ 光度変化

        m1 = 13.5 + 5 logΔ + 10.0 log r

---------------------------------------------------------------------

軌道要素はM.P.E.C. 2006-O03に掲載されたものです。
星図は StellaNavigator Ver.2.0 for Windows (アストロアーツ 編著 / アスキー出版局刊) で作成したものです。
光度グラフはComet for Windowsで作成したものです。

---------------------------------------------------------------------

Copyright(C) Seiichi Yoshida (comet@aerith.net). All rights reserved.